Location: ??
(35.3149°N, 139.6204°E)
Time: 11:04:03
(UTC+00:00)

Cosmos 2297 Rocket - Pass Details

Date: 03 August 2024
Orbit: 837 x 844 km, 71.0° (Epoch: 09 September)

Event Time Altitude Azimuth Distance (km) Brightness Sun altitude
Rises 13:43:28 0° 342° (NNW) 3,407 6.4 -35.2°
Reaches altitude 10° 13:45:57 10° 346° (NNW) 2,469 5.4 -35.4°
Enters shadow 13:49:24 37° 2° (N) 1,297 3.5 -35.6°
